| time (UTC) | temp F | wind direction | speed MPH | gust MPH | rain 1hr in | rain 24hr in | rain mn in | humidity % | barometer mb |
| 20260509151705 | 49 | 109 | 7.0 | 15.0 | 0.00 | 0.02 | 0.02 | 69 | 1022.6 |
| 20260509151205 | 50 | 96 | 9.0 | 15.0 | 0.00 | 0.02 | 0.02 | 66 | 1022.7 |
| 20260509150704 | 50 | 88 | 8.0 | 15.0 | 0.00 | 0.02 | 0.02 | 67 | 1022.8 |
| 20260509150204 | 50 | 104 | 7.0 | 15.0 | 0.00 | 0.02 | 0.02 | 68 | 1022.7 |
| 20260509145705 | 50 | 123 | 7.0 | 15.0 | 0.00 | 0.02 | 0.02 | 69 | 1022.7 |
| 20260509145206 | 50 | 117 | 7.0 | 13.0 | 0.00 | 0.02 | 0.02 | 69 | 1022.7 |
| 20260509144709 | 50 | 115 | 7.0 | 14.0 | 0.00 | 0.02 | 0.02 | 68 | 1022.6 |
| 20260509144205 | 51 | 116 | 8.0 | 16.0 | 0.00 | 0.02 | 0.02 | 68 | 1022.6 |
| 20260509143705 | 51 | 71 | 9.0 | 16.0 | 0.00 | 0.02 | 0.02 | 68 | 1022.6 |
| 20260509143205 | 51 | 111 | 9.0 | 15.0 | 0.00 | 0.02 | 0.02 | 67 | 1022.6 |
| 20260509142704 | 51 | 80 | 7.0 | 13.0 | 0.00 | 0.02 | 0.02 | 67 | 1022.6 |
| 20260509142206 | 51 | 84 | 8.0 | 13.0 | 0.00 | 0.02 | 0.02 | 68 | 1022.6 |
| 20260509141705 | 51 | 94 | 8.0 | 14.0 | 0.00 | 0.02 | 0.02 | 69 | 1022.7 |
| 20260509141205 | 51 | 107 | 8.0 | 14.0 | 0.00 | 0.02 | 0.02 | 68 | 1022.7 |
| 20260509140704 | 51 | 105 | 8.0 | 14.0 | 0.00 | 0.02 | 0.02 | 67 | 1022.6 |
| 20260509140204 | 52 | 82 | 9.0 | 14.0 | 0.00 | 0.02 | 0.02 | 66 | 1022.7 |
| 20260509135705 | 51 | 78 | 9.0 | 15.0 | 0.00 | 0.02 | 0.02 | 70 | 1022.7 |
| 20260509135205 | 51 | 133 | 10.0 | 15.0 | 0.00 | 0.02 | 0.02 | 70 | 1022.6 |
| 20260509134205 | 51 | 121 | 10.0 | 16.0 | 0.00 | 0.02 | 0.02 | 70 | 1022.6 |
| 20260509133705 | 51 | 98 | 9.0 | 16.0 | 0.00 | 0.02 | 0.02 | 69 | 1022.6 |
| 20260509133205 | 51 | 127 | 9.0 | 16.0 | 0.00 | 0.02 | 0.02 | 70 | 1022.7 |
| 20260509132705 | 51 | 107 | 8.0 | 16.0 | 0.00 | 0.02 | 0.02 | 69 | 1022.7 |
| 20260509132205 | 51 | 144 | 8.0 | 16.0 | 0.00 | 0.02 | 0.02 | 69 | 1022.7 |
| 20260509131705 | 51 | 99 | 8.0 | 16.0 | 0.00 | 0.02 | 0.02 | 71 | 1022.7 |
| 20260509131233 | 51 | 92 | 8.0 | 16.0 | 0.00 | 0.02 | 0.02 | 68 | 1022.7 |
| 20260509130205 | 51 | 84 | 9.0 | 13.0 | 0.00 | 0.02 | 0.02 | 69 | 1022.7 |
| 20260509125704 | 51 | 106 | 9.0 | 13.0 | 0.00 | 0.02 | 0.02 | 70 | 1022.8 |
| 20260509125205 | 51 | 105 | 8.0 | 12.0 | 0.00 | 0.02 | 0.02 | 71 | 1022.8 |
| 20260509124705 | 51 | 123 | 7.0 | 12.0 | 0.00 | 0.02 | 0.02 | 71 | 1022.8 |
| 20260509124205 | 51 | 128 | 6.0 | 11.0 | 0.00 | 0.02 | 0.02 | 73 | 1022.8 |
| 20260509123705 | 50 | 90 | 5.0 | 10.0 | 0.00 | 0.02 | 0.02 | 72 | 1022.8 |
| 20260509122706 | 49 | 103 | 7.0 | 13.0 | 0.00 | 0.02 | 0.02 | 74 | 1022.9 |
| 20260509122205 | 49 | 56 | 7.0 | 13.0 | 0.00 | 0.02 | 0.02 | 73 | 1022.9 |
| 20260509121705 | 49 | 65 | 6.0 | 13.0 | 0.00 | 0.02 | 0.02 | 73 | 1022.9 |
| 20260509121205 | 49 | 86 | 7.0 | 13.0 | 0.00 | 0.02 | 0.02 | 72 | 1022.9 |
| 20260509120705 | 49 | 55 | 7.0 | 14.0 | 0.00 | 0.02 | 0.02 | 72 | 1023.0 |
| 20260509120205 | 49 | 69 | 7.0 | 14.0 | 0.00 | 0.02 | 0.02 | 73 | 1022.9 |
| 20260509115705 | 48 | 106 | 5.0 | 13.0 | 0.00 | 0.02 | 0.02 | 75 | 1023.0 |
| 20260509115205 | 48 | 105 | 4.0 | 12.0 | 0.00 | 0.02 | 0.02 | 74 | 1023.0 |
| 20260509114705 | 48 | 103 | 6.0 | 12.0 | 0.00 | 0.02 | 0.02 | 74 | 1023.1 |
| 20260509114205 | 47 | 106 | 6.0 | 12.0 | 0.00 | 0.02 | 0.02 | 74 | 1023.1 |
| 20260509113704 | 47 | 48 | 6.0 | 12.0 | 0.00 | 0.02 | 0.02 | 74 | 1023.1 |
| 20260509113206 | 48 | 0 | 6.0 | 11.0 | 0.00 | 0.02 | 0.02 | 75 | 1023.1 |
| 20260509112705 | 48 | 54 | 5.0 | 10.0 | 0.00 | 0.02 | 0.02 | 74 | 1023.1 |
| 20260509112205 | 48 | 62 | 5.0 | 10.0 | 0.00 | 0.02 | 0.02 | 73 | 1023.1 |
| 20260509111705 | 48 | 76 | 6.0 | 13.0 | 0.00 | 0.02 | 0.02 | 75 | 1023.1 |
| 20260509111205 | 48 | 106 | 7.0 | 13.0 | 0.00 | 0.02 | 0.02 | 73 | 1023.0 |
| 20260509110205 | 48 | 64 | 8.0 | 13.0 | 0.00 | 0.02 | 0.02 | 73 | 1023.0 |
| 20260509105705 | 48 | 69 | 8.0 | 15.0 | 0.00 | 0.02 | 0.02 | 71 | 1022.9 |
| 20260509105205 | 48 | 104 | 7.0 | 15.0 | 0.00 | 0.02 | 0.02 | 73 | 1023.0 |
| 20260509104205 | 48 | 71 | 6.0 | 12.0 | 0.00 | 0.02 | 0.02 | 71 | 1022.9 |
| 20260509103706 | 48 | 61 | 6.0 | 13.0 | 0.00 | 0.02 | 0.02 | 72 | 1022.9 |
| 20260509103205 | 48 | 82 | 7.0 | 13.0 | 0.00 | 0.02 | 0.02 | 71 | 1022.9 |
| 20260509102705 | 48 | 57 | 8.0 | 13.0 | 0.00 | 0.02 | 0.02 | 70 | 1022.9 |
| 20260509102205 | 49 | 77 | 7.0 | 13.0 | 0.00 | 0.02 | 0.02 | 72 | 1022.9 |
| 20260509101705 | 49 | 80 | 7.0 | 12.0 | 0.00 | 0.02 | 0.02 | 72 | 1022.8 |
| 20260509101205 | 48 | 47 | 7.0 | 13.0 | 0.00 | 0.02 | 0.02 | 73 | 1022.8 |
| 20260509100705 | 48 | 70 | 7.0 | 11.0 | 0.00 | 0.02 | 0.02 | 73 | 1022.9 |
| 20260509100205 | 48 | 71 | 7.0 | 11.0 | 0.00 | 0.02 | 0.02 | 73 | 1022.9 |
| 20260509095205 | 47 | 66 | 6.0 | 13.0 | 0.00 | 0.02 | 0.02 | 77 | 1022.9 |
| 20260509094705 | 46 | 74 | 7.0 | 13.0 | 0.00 | 0.02 | 0.02 | 76 | 1022.9 |
| 20260509094205 | 46 | 41 | 6.0 | 10.0 | 0.00 | 0.02 | 0.02 | 76 | 1022.8 |
| 20260509093205 | 46 | 74 | 6.0 | 10.0 | 0.00 | 0.02 | 0.02 | 77 | 1022.8 |
| 20260509092705 | 46 | 78 | 5.0 | 11.0 | 0.00 | 0.02 | 0.02 | 77 | 1022.7 |
| 20260509092206 | 46 | 13 | 6.0 | 11.0 | 0.00 | 0.02 | 0.02 | 77 | 1022.8 |
| 20260509091205 | 46 | 80 | 8.0 | 14.0 | 0.00 | 0.02 | 0.02 | 77 | 1022.8 |
| 20260509090705 | 45 | 69 | 9.0 | 14.0 | 0.00 | 0.02 | 0.02 | 77 | 1022.9 |
| 20260509090205 | 46 | 53 | 7.0 | 14.0 | 0.00 | 0.02 | 0.02 | 78 | 1022.8 |
| 20260509085705 | 46 | 59 | 7.0 | 14.0 | 0.00 | 0.02 | 0.02 | 78 | 1022.8 |
| 20260509085208 | 45 | 59 | 7.0 | 14.0 | 0.00 | 0.02 | 0.02 | 79 | 1022.8 |
| 20260509084705 | 45 | 30 | 6.0 | 11.0 | 0.00 | 0.02 | 0.02 | 80 | 1022.8 |
| 20260509084205 | 45 | 32 | 7.0 | 11.0 | 0.00 | 0.02 | 0.02 | 80 | 1022.7 |
| 20260509083705 | 45 | 67 | 7.0 | 11.0 | 0.01 | 0.02 | 0.02 | 81 | 1022.7 |
| 20260509083205 | 45 | 86 | 6.0 | 11.0 | 0.01 | 0.02 | 0.02 | 81 | 1022.7 |
| 20260509082706 | 45 | 37 | 6.0 | 10.0 | 0.01 | 0.02 | 0.02 | 82 | 1022.7 |
| 20260509081733 | 45 | 51 | 5.0 | 13.0 | 0.01 | 0.02 | 0.02 | 82 | 1022.6 |
| 20260509081205 | 45 | 82 | 7.0 | 13.0 | 0.01 | 0.02 | 0.02 | 82 | 1022.6 |
| 20260509080705 | 45 | 50 | 7.0 | 11.0 | 0.01 | 0.02 | 0.02 | 82 | 1022.5 |
| 20260509080226 | 45 | 49 | 7.0 | 11.0 | 0.01 | 0.02 | 0.02 | 82 | 1022.4 |
| 20260509075706 | 44 | 43 | 6.0 | 13.0 | 0.01 | 0.02 | 0.02 | 82 | 1022.4 |
| 20260509075205 | 44 | 47 | 7.0 | 13.0 | 0.01 | 0.02 | 0.02 | 82 | 1022.4 |
| 20260509074705 | 44 | 52 | 7.0 | 12.0 | 0.01 | 0.02 | 0.02 | 82 | 1022.5 |
| 20260509074206 | 44 | 57 | 7.0 | 12.0 | 0.00 | 0.02 | 0.02 | 83 | 1022.4 |
| 20260509073705 | 44 | 51 | 7.0 | 12.0 | 0.00 | 0.02 | 0.02 | 83 | 1022.4 |
| 20260509073206 | 44 | 43 | 7.0 | 11.0 | 0.00 | 0.02 | 0.02 | 83 | 1022.3 |
| 20260509072705 | 44 | 9 | 6.0 | 11.0 | 0.00 | 0.02 | 0.02 | 83 | 1022.2 |
| 20260509071705 | 44 | 34 | 7.0 | 11.0 | 0.00 | 0.02 | 0.02 | 82 | 1022.1 |
| 20260509070705 | 45 | 65 | 5.0 | 11.0 | 0.00 | 0.02 | 0.02 | 81 | 1022.1 |
| 20260509070205 | 44 | 60 | 6.0 | 12.0 | 0.00 | 0.02 | 0.02 | 81 | 1022.1 |
| 20260509065705 | 44 | 46 | 6.0 | 12.0 | 0.00 | 0.02 | 0.02 | 80 | 1022.1 |
| 20260509064205 | 44 | 56 | 5.0 | 11.0 | 0.00 | 0.02 | 0.02 | 81 | 1021.9 |
| 20260509063706 | 44 | 46 | 6.0 | 11.0 | 0.00 | 0.02 | 0.02 | 82 | 1021.9 |
| 20260509063205 | 44 | 32 | 6.0 | 10.0 | 0.00 | 0.02 | 0.02 | 82 | 1022.0 |
| 20260509062705 | 44 | 56 | 5.0 | 10.0 | 0.00 | 0.02 | 0.02 | 83 | 1022.0 |
| 20260509062206 | 45 | 32 | 5.0 | 10.0 | 0.00 | 0.02 | 0.02 | 83 | 1022.0 |
| 20260509061705 | 45 | 48 | 6.0 | 11.0 | 0.00 | 0.02 | 0.02 | 83 | 1021.9 |
| 20260509061205 | 45 | 53 | 6.0 | 16.0 | 0.00 | 0.02 | 0.02 | 83 | 1021.9 |
| 20260509060704 | 44 | 64 | 7.0 | 16.0 | 0.00 | 0.02 | 0.02 | 83 | 1021.9 |
| 20260509060206 | 44 | 52 | 7.0 | 16.0 | 0.00 | 0.02 | 0.02 | 83 | 1021.7 |
| 20260509055705 | 44 | 53 | 8.0 | 14.0 | 0.00 | 0.02 | 0.02 | 83 | 1021.7 |
| 20260509055206 | 44 | 46 | 8.0 | 14.0 | 0.00 | 0.02 | 0.02 | 84 | 1021.7 |
| 20260509054706 | 44 | 32 | 7.0 | 14.0 | 0.00 | 0.02 | 0.02 | 84 | 1021.7 |
| 20260509054206 | 44 | 41 | 5.0 | 12.0 | 0.00 | 0.02 | 0.02 | 85 | 1021.6 |
| 20260509053205 | 44 | 60 | 5.0 | 12.0 | 0.00 | 0.02 | 0.02 | 86 | 1021.5 |
| 20260509052205 | 44 | 40 | 4.0 | 8.0 | 0.01 | 0.02 | 0.02 | 86 | 1021.4 |
| 20260509051205 | 44 | 38 | 4.0 | 8.0 | 0.01 | 0.02 | 0.02 | 87 | 1021.3 |
| 20260509050205 | 44 | 55 | 4.0 | 7.0 | 0.01 | 0.02 | 0.02 | 87 | 1021.2 |
| 20260509045704 | 44 | 34 | 4.0 | 8.0 | 0.01 | 0.02 | 0.02 | 87 | 1021.2 |
| 20260509045206 | 45 | 46 | 4.0 | 8.0 | 0.01 | 0.02 | 0.02 | 87 | 1021.1 |
| 20260509044705 | 45 | 19 | 4.0 | 9.0 | 0.01 | 0.02 | 0.02 | 87 | 1021.1 |
| 20260509044206 | 45 | 51 | 4.0 | 9.0 | 0.01 | 0.02 | 0.02 | 87 | 1021.0 |
| 20260509043705 | 45 | 36 | 4.0 | 9.0 | 0.01 | 0.02 | 0.02 | 87 | 1021.0 |
| 20260509043205 | 45 | 41 | 4.0 | 9.0 | 0.01 | 0.02 | 0.02 | 87 | 1020.9 |
| 20260509042705 | 45 | 61 | 3.0 | 7.0 | 0.01 | 0.02 | 0.02 | 87 | 1021.0 |
| 20260509042206 | 45 | 51 | 3.0 | 5.0 | 0.01 | 0.01 | 0.01 | 87 | 1021.0 |
| 20260509041705 | 45 | 34 | 3.0 | 5.0 | 0.01 | 0.01 | 0.01 | 87 | 1021.0 |
| 20260509040706 | 45 | 45 | 3.0 | 6.0 | 0.01 | 0.01 | 0.01 | 86 | 1020.9 |
| 20260509040205 | 45 | 47 | 4.0 | 9.0 | 0.01 | 0.01 | 0.01 | 86 | 1020.8 |
| 20260509035705 | 45 | 53 | 5.0 | 9.0 | 0.01 | 0.01 | 0.01 | 85 | 1020.8 |
| 20260509035205 | 45 | 19 | 5.0 | 10.0 | 0.01 | 0.01 | 0.01 | 85 | 1020.8 |
| 20260509034205 | 45 | 46 | 5.0 | 10.0 | 0.01 | 0.01 | 0.01 | 85 | 1020.7 |
| 20260509033705 | 45 | 49 | 4.0 | 9.0 | 0.01 | 0.01 | 0.01 | 85 | 1020.7 |
| 20260509033205 | 46 | 54 | 3.0 | 5.0 | 0.01 | 0.01 | 0.01 | 85 | 1020.7 |
| 20260509032705 | 46 | 15 | 3.0 | 8.0 | 0.01 | 0.01 | 0.01 | 84 | 1020.7 |
| 20260509032205 | 46 | 24 | 3.0 | 9.0 | 0.00 | 0.00 | 0.00 | 84 | 1020.7 |
| 20260509031205 | 46 | 15 | 4.0 | 9.0 | 0.00 | 0.00 | 0.00 | 83 | 1020.7 |
| 20260509030704 | 46 | 34 | 4.0 | 7.0 | 0.00 | 0.00 | 0.00 | 82 | 1020.7 |
| 20260509030205 | 46 | 42 | 3.0 | 7.0 | 0.00 | 0.00 | 0.00 | 82 | 1020.7 |
| 20260509025705 | 46 | 11 | 3.0 | 8.0 | 0.00 | 0.00 | 0.00 | 82 | 1020.6 |
| 20260509025206 | 46 | 28 | 4.0 | 8.0 | 0.00 | 0.00 | 0.00 | 82 | 1020.6 |
| 20260509024207 | 46 | 48 | 4.0 | 9.0 | 0.00 | 0.00 | 0.00 | 81 | 1020.6 |
| 20260509023705 | 46 | 40 | 4.0 | 10.0 | 0.00 | 0.00 | 0.00 | 81 | 1020.6 |
| 20260509022706 | 46 | 65 | 5.0 | 10.0 | 0.00 | 0.00 | 0.00 | 81 | 1020.5 |
| 20260509022206 | 46 | 55 | 5.0 | 10.0 | 0.00 | 0.00 | 0.00 | 81 | 1020.5 |
| 20260509021705 | 46 | 59 | 5.0 | 10.0 | 0.00 | 0.00 | 0.00 | 81 | 1020.5 |
| 20260509021205 | 46 | 42 | 5.0 | 10.0 | 0.00 | 0.00 | 0.00 | 82 | 1020.4 |
| 20260509020705 | 46 | 55 | 5.0 | 10.0 | 0.00 | 0.00 | 0.00 | 82 | 1020.5 |
| 20260509015705 | 46 | 30 | 5.0 | 8.0 | 0.00 | 0.00 | 0.00 | 82 | 1020.5 |
| 20260509015205 | 47 | 53 | 5.0 | 8.0 | 0.00 | 0.00 | 0.00 | 82 | 1020.5 |
| 20260509014705 | 47 | 53 | 4.0 | 8.0 | 0.00 | 0.00 | 0.00 | 82 | 1020.5 |
| 20260509014205 | 47 | 56 | 3.0 | 8.0 | 0.00 | 0.00 | 0.00 | 83 | 1020.4 |
| 20260509013704 | 47 | 44 | 4.0 | 10.0 | 0.00 | 0.00 | 0.00 | 83 | 1020.4 |
| 20260509013205 | 47 | 42 | 5.0 | 10.0 | 0.00 | 0.00 | 0.00 | 83 | 1020.4 |
| 20260509012705 | 47 | 66 | 5.0 | 10.0 | 0.00 | 0.00 | 0.00 | 83 | 1020.3 |
| 20260509012205 | 47 | 63 | 4.0 | 9.0 | 0.00 | 0.00 | 0.00 | 83 | 1020.3 |
| 20260509011705 | 47 | 55 | 5.0 | 9.0 | 0.00 | 0.00 | 0.00 | 83 | 1020.3 |
| 20260509011205 | 47 | 31 | 4.0 | 9.0 | 0.00 | 0.00 | 0.00 | 83 | 1020.3 |
| 20260509010703 | 47 | 55 | 4.0 | 11.0 | 0.00 | 0.00 | 0.00 | 83 | 1020.3 |
| 20260509005705 | 47 | 28 | 6.0 | 11.0 | 0.00 | 0.00 | 0.00 | 83 | 1020.2 |
| 20260509005206 | 47 | 46 | 5.0 | 8.0 | 0.00 | 0.00 | 0.00 | 84 | 1020.1 |
| 20260509004205 | 47 | 42 | 4.0 | 8.0 | 0.00 | 0.00 | 0.00 | 83 | 1020.2 |
| 20260509003705 | 47 | 30 | 3.0 | 5.0 | 0.00 | 0.00 | 0.00 | 83 | 1020.2 |
| 20260509003207 | 47 | 5 | 3.0 | 7.0 | 0.00 | 0.00 | 0.00 | 83 | 1020.1 |
| 20260509002706 | 47 | 29 | 4.0 | 7.0 | 0.00 | 0.00 | 0.00 | 83 | 1020.1 |
| 20260509002206 | 47 | 45 | 4.0 | 9.0 | 0.00 | 0.00 | 0.00 | 82 | 1020.0 |
| 20260509001705 | 48 | 51 | 4.0 | 9.0 | 0.00 | 0.00 | 0.00 | 82 | 1019.9 |
| 20260509001205 | 48 | 53 | 4.0 | 9.0 | 0.00 | 0.00 | 0.00 | 82 | 1019.9 |
| 20260509000704 | 48 | 67 | 4.0 | 8.0 | 0.00 | 0.00 | 0.00 | 82 | 1019.8 |
| 20260509000205 | 48 | 67 | 4.0 | 9.0 | 0.00 | 0.00 | 0.00 | 81 | 1019.8 |
| 20260508235706 | 48 | 51 | 4.0 | 9.0 | 0.00 | 0.00 | 0.00 | 81 | 1019.7 |
| 20260508234205 | 48 | 63 | 5.0 | 10.0 | 0.00 | 0.00 | 0.00 | 80 | 1019.8 |
| 20260508233705 | 49 | 71 | 5.0 | 10.0 | 0.00 | 0.00 | 0.00 | 80 | 1019.8 |
| 20260508233206 | 49 | 52 | 5.0 | 10.0 | 0.00 | 0.00 | 0.00 | 80 | 1019.7 |
| 20260508232707 | 49 | 43 | 4.0 | 9.0 | 0.00 | 0.00 | 0.00 | 80 | 1019.7 |
| 20260508231705 | 49 | 13 | 5.0 | 11.0 | 0.00 | 0.00 | 0.00 | 79 | 1019.6 |
| 20260508231205 | 49 | 39 | 6.0 | 11.0 | 0.00 | 0.00 | 0.00 | 79 | 1019.6 |
| 20260508230705 | 49 | 76 | 5.0 | 8.0 | 0.00 | 0.00 | 0.00 | 79 | 1019.6 |
| 20260508230205 | 49 | 45 | 4.0 | 11.0 | 0.00 | 0.00 | 0.00 | 78 | 1019.5 |
| 20260508225705 | 49 | 42 | 5.0 | 11.0 | 0.00 | 0.00 | 0.00 | 78 | 1019.5 |
| 20260508225205 | 49 | 29 | 5.0 | 12.0 | 0.00 | 0.00 | 0.00 | 77 | 1019.4 |
| 20260508224205 | 48 | 57 | 3.0 | 12.0 | 0.00 | 0.00 | 0.00 | 76 | 1019.3 |
| 20260508223705 | 47 | 351 | 2.0 | 4.0 | 0.00 | 0.00 | 0.00 | 75 | 1019.2 |
| 20260508223205 | 47 | 278 | 2.0 | 4.0 | 0.00 | 0.00 | 0.00 | 74 | 1019.0 |
| 20260508222704 | 47 | 273 | 2.0 | 3.0 | 0.00 | 0.00 | 0.00 | 74 | 1019.0 |
| 20260508222206 | 47 | 279 | 2.0 | 3.0 | 0.00 | 0.00 | 0.00 | 74 | 1019.0 |
| 20260508221705 | 47 | 275 | 1.0 | 3.0 | 0.00 | 0.00 | 0.00 | 74 | 1018.9 |
| 20260508221205 | 47 | 268 | 1.0 | 2.0 | 0.00 | 0.00 | 0.00 | 74 | 1018.9 |
| 20260508220704 | 47 | 256 | 1.0 | 2.0 | 0.00 | 0.00 | 0.00 | 73 | 1018.8 |
| 20260508220205 | 47 | 251 | 1.0 | 2.0 | 0.00 | 0.00 | 0.00 | 73 | 1018.8 |
| 20260508215705 | 47 | 225 | 1.0 | 3.0 | 0.00 | 0.00 | 0.00 | 73 | 1018.7 |
| 20260508215206 | 47 | 225 | 1.0 | 3.0 | 0.00 | 0.00 | 0.00 | 73 | 1018.7 |
| 20260508214705 | 47 | 225 | 1.0 | 4.0 | 0.00 | 0.00 | 0.00 | 72 | 1018.6 |
| 20260508214205 | 48 | 230 | 2.0 | 4.0 | 0.00 | 0.00 | 0.00 | 72 | 1018.5 |
| 20260508213704 | 48 | 230 | 2.0 | 4.0 | 0.00 | 0.00 | 0.00 | 72 | 1018.5 |
| 20260508212705 | 48 | 230 | 2.0 | 4.0 | 0.00 | 0.00 | 0.00 | 71 | 1018.3 |
| 20260508212206 | 48 | 234 | 2.0 | 4.0 | 0.00 | 0.00 | 0.00 | 71 | 1018.3 |
| 20260508211705 | 48 | 249 | 2.0 | 3.0 | 0.00 | 0.00 | 0.00 | 71 | 1018.2 |
| 20260508210706 | 49 | 248 | 2.0 | 4.0 | 0.00 | 0.00 | 0.00 | 70 | 1018.2 |
| 20260508210205 | 49 | 249 | 2.0 | 5.0 | 0.00 | 0.00 | 0.00 | 70 | 1018.2 |
| 20260508205706 | 49 | 241 | 2.0 | 5.0 | 0.00 | 0.00 | 0.00 | 69 | 1018.2 |
| 20260508204704 | 49 | 250 | 2.0 | 4.0 | 0.00 | 0.00 | 0.00 | 68 | 1018.1 |
| 20260508204234 | 50 | 234 | 2.0 | 4.0 | 0.00 | 0.00 | 0.00 | 68 | 1018.0 |
| 20260508203704 | 50 | 281 | 2.0 | 5.0 | 0.00 | 0.00 | 0.00 | 68 | 1018.0 |
| 20260508203205 | 50 | 254 | 2.0 | 7.0 | 0.00 | 0.00 | 0.00 | 67 | 1017.9 |
| 20260508202206 | 50 | 251 | 2.0 | 4.0 | 0.00 | 0.00 | 0.00 | 67 | 1017.8 |
| 20260508201705 | 50 | 248 | 2.0 | 4.0 | 0.00 | 0.00 | 0.00 | 67 | 1017.7 |
| 20260508201206 | 51 | 234 | 2.0 | 5.0 | 0.00 | 0.00 | 0.00 | 67 | 1017.7 |
| 20260508200704 | 51 | 216 | 2.0 | 5.0 | 0.00 | 0.00 | 0.00 | 67 | 1017.7 |
| 20260508200205 | 51 | 259 | 2.0 | 5.0 | 0.00 | 0.00 | 0.00 | 67 | 1017.5 |
| 20260508195705 | 51 | 249 | 2.0 | 5.0 | 0.00 | 0.00 | 0.00 | 66 | 1017.6 |
| 20260508195206 | 52 | 221 | 2.0 | 5.0 | 0.00 | 0.00 | 0.00 | 65 | 1017.5 |
| 20260508194705 | 52 | 233 | 2.0 | 5.0 | 0.00 | 0.00 | 0.00 | 65 | 1017.5 |
| 20260508194205 | 52 | 245 | 2.0 | 4.0 | 0.00 | 0.00 | 0.00 | 65 | 1017.4 |
| 20260508193705 | 52 | 238 | 2.0 | 4.0 | 0.00 | 0.00 | 0.00 | 64 | 1017.4 |
| 20260508193207 | 53 | 229 | 2.0 | 5.0 | 0.00 | 0.00 | 0.00 | 64 | 1017.3 |
| 20260508192705 | 53 | 275 | 2.0 | 5.0 | 0.00 | 0.00 | 0.00 | 63 | 1017.3 |
| 20260508192206 | 53 | 237 | 3.0 | 5.0 | 0.00 | 0.00 | 0.00 | 63 | 1017.2 |
| 20260508191706 | 53 | 0 | 3.0 | 5.0 | 0.00 | 0.00 | 0.00 | 63 | 1017.2 |
| 20260508191205 | 54 | 224 | 3.0 | 5.0 | 0.00 | 0.00 | 0.00 | 62 | 1017.2 |
| 20260508190705 | 54 | 229 | 3.0 | 5.0 | 0.00 | 0.00 | 0.00 | 62 | 1017.0 |
| 20260508190206 | 54 | 246 | 3.0 | 5.0 | 0.00 | 0.00 | 0.00 | 62 | 1017.1 |
| 20260508185705 | 54 | 246 | 3.0 | 5.0 | 0.00 | 0.00 | 0.00 | 62 | 1017.0 |
| 20260508185206 | 55 | 232 | 2.0 | 6.0 | 0.00 | 0.00 | 0.00 | 60 | 1017.0 |
| 20260508183705 | 55 | 238 | 3.0 | 6.0 | 0.00 | 0.00 | 0.00 | 59 | 1016.8 |
| 20260508182705 | 55 | 0 | 3.0 | 6.0 | 0.00 | 0.00 | 0.00 | 59 | 1016.7 |
| 20260508182206 | 56 | 0 | 3.0 | 9.0 | 0.00 | 0.00 | 0.00 | 60 | 1016.6 |
| 20260508180704 | 56 | 256 | 4.0 | 9.0 | 0.00 | 0.00 | 0.00 | 58 | 1016.6 |
| 20260508180205 | 56 | 273 | 4.0 | 11.0 | 0.00 | 0.00 | 0.00 | 57 | 1016.5 |
| 20260508175205 | 57 | 287 | 4.0 | 12.0 | 0.00 | 0.00 | 0.00 | 58 | 1016.4 |
| 20260508173705 | 57 | 253 | 3.0 | 7.0 | 0.00 | 0.00 | 0.00 | 59 | 1016.2 |
| 20260508172206 | 57 | 248 | 4.0 | 8.0 | 0.00 | 0.00 | 0.00 | 57 | 1016.1 |
| 20260508171705 | 56 | 0 | 4.0 | 8.0 | 0.00 | 0.00 | 0.00 | 58 | 1016.1 |
| 20260508171205 | 56 | 251 | 3.0 | 10.0 | 0.00 | 0.00 | 0.00 | 59 | 1016.0 |
| 20260508170706 | 56 | 231 | 4.0 | 10.0 | 0.00 | 0.00 | 0.00 | 60 | 1016.0 |
| 20260508170205 | 56 | 193 | 4.0 | 10.0 | 0.00 | 0.00 | 0.00 | 60 | 1015.9 |
| 20260508165206 | 57 | 0 | 4.0 | 10.0 | 0.00 | 0.00 | 0.00 | 60 | 1015.9 |
| 20260508164705 | 57 | 257 | 4.0 | 10.0 | 0.00 | 0.00 | 0.00 | 60 | 1015.9 |
| 20260508164205 | 57 | 248 | 5.0 | 10.0 | 0.00 | 0.00 | 0.00 | 61 | 1015.8 |
| 20260508163705 | 57 | 275 | 6.0 | 10.0 | 0.00 | 0.00 | 0.00 | 58 | 1015.8 |
| 20260508163204 | 57 | 258 | 6.0 | 10.0 | 0.00 | 0.00 | 0.00 | 58 | 1015.8 |
| 20260508162705 | 57 | 236 | 4.0 | 10.0 | 0.00 | 0.00 | 0.00 | 58 | 1015.7 |
| 20260508162205 | 57 | 244 | 4.0 | 9.0 | 0.00 | 0.00 | 0.00 | 59 | 1015.7 |
| 20260508161705 | 57 | 226 | 5.0 | 9.0 | 0.00 | 0.00 | 0.00 | 60 | 1015.6 |
| 20260508161205 | 57 | 242 | 5.0 | 13.0 | 0.00 | 0.00 | 0.00 | 58 | 1015.7 |
| 20260508160705 | 58 | 247 | 6.0 | 13.0 | 0.00 | 0.00 | 0.00 | 58 | 1015.7 |
| 20260508160206 | 58 | 248 | 6.0 | 12.0 | 0.00 | 0.00 | 0.00 | 58 | 1015.6 |
| 20260508155705 | 58 | 0 | 5.0 | 10.0 | 0.00 | 0.00 | 0.00 | 59 | 1015.5 |
| 20260508155205 | 58 | 257 | 5.0 | 11.0 | 0.00 | 0.00 | 0.00 | 58 | 1015.6 |
| 20260508154205 | 58 | 232 | 5.0 | 11.0 | 0.00 | 0.00 | 0.00 | 59 | 1015.5 |
| 20260508153705 | 58 | 251 | 4.0 | 11.0 | 0.00 | 0.00 | 0.00 | 59 | 1015.5 |
| 20260508153205 | 58 | 234 | 4.0 | 11.0 | 0.00 | 0.00 | 0.00 | 59 | 1015.4 |
| 20260508152205 | 58 | 267 | 6.0 | 13.0 | 0.00 | 0.00 | 0.00 | 57 | 1015.4 |